This is the latest recevied weather packets stored in our database for station/object N6DZK. If no packets are shown the sender has not sent any weather packets the latest 10 day(s).
| Time | Temp. | Humidity | Pressure | Rain* | Wind** | Luminosity | Snow |
|---|---|---|---|---|---|---|---|
| 1777493245 | 26.11° C | 39% | 1016.7 hPa | 0 mm | - | 1003 W/m² | - |
| 1777492941 | 26.67° C | 37% | 1017 hPa | 0 mm | - | 1005 W/m² | - |
| 1777492638 | 26.11° C | 40% | 1017 hPa | 0 mm | - | 1008 W/m² | - |
| 1777492333 | 26.11° C | 37% | 1017 hPa | 0 mm | - | 1010 W/m² | - |
| 1777492030 | 26.11° C | 37% | 1017.2 hPa | 0 mm | - | 1006 W/m² | - |
| 1777491727 | 25.56° C | 39% | 1017.2 hPa | 0 mm | - | 1008 W/m² | - |
| 1777491424 | 26.11° C | 37% | 1017.4 hPa | 0 mm | - | 1004 W/m² | - |
| 1777491121 | 25.56° C | 40% | 1017.4 hPa | 0 mm | - | 997 W/m² | - |
| 1777490816 | 25° C | 40% | 1017.5 hPa | 0 mm | - | 996 W/m² | - |
| 1777490513 | 25° C | 41% | 1017.6 hPa | 0 mm | - | 991 W/m² | - |
| 1777490209 | 24.44° C | 43% | 1017.6 hPa | 0 mm | - | 990 W/m² | - |
| 1777489907 | 25° C | 40% | 1017.6 hPa | 0 mm | - | 984 W/m² | - |
| 1777489605 | 25° C | 40% | 1017.7 hPa | 0 mm | - | 974 W/m² | - |
| 1777489301 | 25.56° C | 43% | 1017.8 hPa | 0 mm | - | 974 W/m² | - |
| 1777488998 | 24.44° C | 42% | 1017.8 hPa | 0 mm | - | 970 W/m² | - |
| 1777488695 | 24.44° C | 40% | 1018 hPa | 0 mm | - | 963 W/m² | - |
| 1777488393 | 24.44° C | 39% | 1018.1 hPa | 0 mm | - | 954 W/m² | - |
| 1777488091 | 24.44° C | 40% | 1018 hPa | 0 mm | - | 943 W/m² | - |
| 1777487788 | 23.89° C | 44% | 1018.1 hPa | 0 mm | - | 932 W/m² | - |
| 1777487486 | 23.89° C | 45% | 1018 hPa | 0 mm | - | 926 W/m² | - |
| 1777487183 | 23.33° C | 48% | 1018.3 hPa | 0 mm | - | 918 W/m² | - |
| 1777486879 | 22.78° C | 45% | 1018.3 hPa | 0 mm | - | 909 W/m² | - |
| 1777486576 | 22.78° C | 45% | 1018.3 hPa | 0 mm | - | 900 W/m² | - |
| 1777486274 | 22.78° C | 46% | 1018.2 hPa | 0 mm | - | 891 W/m² | - |
| 1777485971 | 22.78° C | 48% | 1018.3 hPa | 0 mm | - | 882 W/m² | - |
* Rain latest hour (hover to see other rain measurements)
** Current wind speed in m/s (hover to see current wind gust speed)